"2005/01/01",  4.6,  4.8,  4.3
"2005/01/02",  4.4,  4.8,  4.0
"2005/01/03",  4.1,  4.4,  3.7
"2005/01/04",  4.7,  5.5,  4.4
"2005/01/05",  5.3,  5.5,  5.1
"2005/01/06",  4.8,  5.3,  4.6
"2005/01/07",  4.8,  5.2,  4.6
"2005/01/08",  4.9,  5.2,  4.7
"2005/01/09",  4.6,  4.9,  4.3
"2005/01/10",  4.2,  4.7,  3.9
"2005/01/11",  3.9,  4.2,  3.6
"2005/01/12",  3.7,  4.1,  3.4
"2005/01/13",  3.2,  3.5,  2.9
"2005/01/14",  3.2,  3.6,  2.9
"2005/01/15",  3.7,  4.0,  3.6
"2005/01/16",  4.6,  4.9,  4.0
"2005/01/17",  4.6,  5.0,  4.2
"2005/01/18",  4.6,  5.0,  4.3
"2005/01/19",  4.7,  5.0,  4.5
"2005/01/20",  4.6,  4.9,  4.3
"2005/01/21",  4.3,  4.7,  4.0
"2005/01/22",  3.9,  4.4,  3.6
"2005/01/23",  3.5,  4.0,  3.3
"2005/01/24",  3.5,  3.9,  3.3
"2005/01/25",  3.8,  4.2,  3.4
"2005/01/26",  4.1,  4.2,  3.9
"2005/01/27",  3.7,  4.2,  3.3
"2005/01/28",  3.6,  3.8,  3.2
"2005/01/29",  3.6,  4.0,  3.3
"2005/01/30",  4.0,  4.3,  3.8
"2005/01/31",  4.2,  4.5,  3.9
"2005/02/01",  4.0,  4.5,  3.7
"2005/02/02",  3.5,  4.0,  3.2
"2005/02/03",  3.2,  3.5,  2.9
"2005/02/04",  3.0,  3.4,  2.7
"2005/02/05",  3.1,  3.4,  2.8
"2005/02/06",  3.2,  3.5,  2.8
"2005/02/07",  3.3,  3.7,  3.0
"2005/02/08",  3.7,  3.8,  3.7
"2005/02/09",  3.6,  4.1,  3.3
"2005/02/10",  4.3,  5.0,  4.0
"2005/02/11",  4.8,  5.0,  4.4
"2005/02/12",  4.6,  5.0,  4.2
"2005/02/13",  4.6,  4.8,  4.4
"2005/02/14",  4.3,  4.7,  3.9
"2005/02/15",  4.5,  5.0,  4.2
"2005/02/16",  4.8,  5.0,  4.6
"2005/02/17",  4.7,  5.5,  4.3
"2005/02/18",  5.3,  5.5,  5.1
"2005/02/19",  4.9,  5.2,  4.8
"2005/02/20",  4.9,  5.2,  4.6
"2005/02/21",  5.2,  5.6,  4.8
"2005/02/22",  5.2,  5.6,  4.7
"2005/02/23",  5.1,  5.5,  4.6
"2005/02/24",  5.1,  5.5,  4.8
"2005/02/25",  4.6,  5.1,  4.3
"2005/02/26",  4.4,  4.7,  4.0
"2005/02/27",  4.3,  4.7,  3.8
"2005/02/28",  4.7,  5.4,  4.3
"2005/03/01",  5.2,  5.5,  4.8
"2005/03/02",  5.1,  5.5,  4.7
"2005/03/03",  5.3,  5.8,  5.0
"2005/03/04",  5.2,  5.8,  4.6
"2005/03/05",  4.5,  5.2,  4.2
"2005/03/06",  4.8,  5.2,  4.6
"2005/03/07",  4.4,  5.0,  3.9
"2005/03/08",  5.0,  5.8,  4.5
"2005/03/09",  5.8,  6.4,  5.4
"2005/03/10",  6.3,  6.6,  6.0
"2005/03/11",  6.4,  6.6,  6.2
"2005/03/12",  6.6,  7.1,  6.4
"2005/03/13",  6.6,  7.0,  6.2
"2005/03/14",  6.3,  6.9,  5.8
"2005/03/15",  6.3,  6.7,  5.9
"2005/03/16",  6.5,  7.4,  6.0
"2005/03/17",  7.1,  7.4,  7.0
"2005/03/18",  7.9,  8.6,  7.3
"2005/03/19",  8.0,  8.6,  7.5
"2005/03/20",  7.8,  8.3,  7.4
"2005/03/21",  7.5,  8.2,  7.0
"2005/03/22",  7.9,  8.2,  7.7
"2005/03/23",  8.2,  8.4,  8.0
"2005/03/24",  8.0,  8.3,  7.6
"2005/03/25",  8.0,  8.3,  7.7
"2005/03/26",  7.4,  8.0,  6.9
"2005/03/27",  7.6,  8.5,  7.0
"2005/03/28",  8.3,  8.5,  8.0
"2005/03/29",  8.1,  8.3,  7.8
"2005/03/30",  8.2,  8.7,  7.8
"2005/03/31",  8.4,  9.1,  7.8
"2005/04/01",  8.8,  9.4,  8.3
"2005/04/02",  9.2,  9.4,  8.9
"2005/04/03",  9.4, 10.4,  8.9
"2005/04/04",  9.9, 10.5,  9.5
"2005/04/05",  9.0,  9.8,  8.3
"2005/04/06",  9.8, 10.8,  9.1
"2005/04/07", 11.0, 11.8, 10.7
"2005/04/08", 12.0, 12.8, 11.6
"2005/04/09", 12.4, 12.8, 11.9
"2005/04/10", 12.5, 13.1, 12.1
"2005/04/11", 12.9, 13.1, 12.1
"2005/04/12", 11.2, 12.2, 10.4
"2005/04/13",  9.9, 10.4,  9.7
"2005/04/14", 10.1, 11.2,  9.6
"2005/04/15", 11.4, 12.3, 10.9
"2005/04/16", 12.3, 12.6, 11.9
"2005/04/17", 12.3, 13.0, 11.8
"2005/04/18", 12.7, 13.0, 12.3
"2005/04/19", 12.8, 13.3, 12.4
"2005/04/20", 12.7, 13.3, 12.4
"2005/04/21", 12.6, 13.2, 12.2
"2005/04/22", 12.9, 13.3, 12.4
"2005/04/23", 12.9, 13.5, 12.4
"2005/04/24", 13.2, 13.7, 12.8
"2005/04/25", 13.2, 13.7, 12.9
"2005/04/26", 13.4, 13.8, 13.2
"2005/04/27", 13.4, 14.1, 12.8
"2005/04/28", 14.1, 14.9, 13.5
"2005/04/29", 15.1, 16.0, 14.6
"2005/04/30", 15.8, 16.2, 15.4
"2005/05/01", 15.7, 16.1, 15.3
"2005/05/02", 16.1, 16.5, 15.8
"2005/05/03", 16.0, 16.5, 15.5
"2005/05/04", 15.9, 16.5, 15.3
"2005/05/05", 16.2, 16.6, 15.8
"2005/05/06", 15.9, 16.5, 15.3
"2005/05/07", 14.6, 15.4, 14.2
"2005/05/08", 14.4, 14.7, 14.1
"2005/05/09", 14.1, 15.0, 13.7
"2005/05/10", 15.1, 15.9, 14.6
"2005/05/11", 15.3, 15.9, 14.8
"2005/05/12", 14.3, 14.8, 14.1
"2005/05/13", 14.0, 14.4, 13.7
"2005/05/14", 13.6, 14.3, 13.2
"2005/05/15", 14.1, 14.6, 13.8
"2005/05/16", 14.4, 15.1, 13.9
"2005/05/17", 14.9, 15.5, 14.5
"2005/05/18", 15.3, 15.6, 15.0
"2005/05/19", 15.8, 16.6, 15.4
"2005/05/20", 16.4, 16.7, 16.1
"2005/05/21", 16.5, 17.2, 16.0
"2005/05/22", 17.1, 17.4, 16.8
"2005/05/23", 17.4, 18.0, 16.9
"2005/05/24", 17.4, 17.9, 17.0
"2005/05/25", 17.1, 17.7, 16.5
"2005/05/26", 17.3, 18.0, 16.7
"2005/05/27", 17.8, 18.4, 17.3
"2005/05/28", 18.4, 19.1, 17.9
"2005/05/29", 18.6, 19.0, 18.2
"2005/05/30", 18.0, 18.6, 17.6
"2005/05/31", 17.2, 17.6, 16.9
"2005/06/01", 17.4, 18.4, 16.8
"2005/06/02", 18.2, 18.4, 18.1
"2005/06/03", 17.9, 18.3, 17.6
"2005/06/04", 17.8, 18.1, 17.5
"2005/06/05", 18.0, 19.0, 17.4
"2005/06/06", 18.9, 19.8, 18.4
"2005/06/07", 19.3, 19.7, 18.9
"2005/06/08", 19.3, 19.7, 18.9
"2005/06/09", 19.4, 19.8, 19.0
"2005/06/10", 19.5, 19.8, 19.3
"2005/06/11", 19.4, 20.0, 19.1
"2005/06/12", 20.3, 21.1, 19.8
"2005/06/13", 20.9, 21.3, 20.6
"2005/06/14", 20.8, 21.3, 20.5
"2005/06/15", 20.2, 20.8, 19.7
"2005/06/16", 19.2, 19.7, 19.0
"2005/06/17", 19.1, 19.8, 18.6
"2005/06/18", 19.6, 19.9, 19.3
"2005/06/19", 20.0, 20.8, 19.6
"2005/06/20", 20.8, 21.6, 20.4
"2005/06/21", 21.5, 22.1, 21.0
"2005/06/22", 21.6, 22.1, 21.2
"2005/06/23", 20.9, 21.3, 20.7
"2005/06/24", 21.3, 22.1, 20.8
"2005/06/25", 22.2, 23.1, 21.7
"2005/06/26", 22.9, 23.4, 22.6
"2005/06/27", 23.2, 23.6, 22.9
"2005/06/28", 23.5, 24.0, 23.2
"2005/06/29", 23.4, 24.0, 23.0
"2005/06/30", 22.7, 23.1, 22.4
"2005/07/01", 22.7, 22.9, 22.5
"2005/07/02", 22.7, 23.0, 22.4
"2005/07/03", 22.3, 23.0, 21.8
"2005/07/04", 21.1, 21.9, 20.8
"2005/07/05", 20.9, 21.5, 20.6
"2005/07/06", 21.0, 21.5, 20.7
"2005/07/07", 21.0, 21.8, 20.6
"2005/07/08", 21.6, 22.0, 21.4
"2005/07/09", 21.5, 21.9, 21.2
"2005/07/10", 21.5, 22.3, 21.1
"2005/07/11", 22.6, 23.4, 22.2
"2005/07/12", 22.7, 23.4, 22.0
"2005/07/13", 21.5, 22.1, 21.2
"2005/07/14", 21.2, 21.6, 21.1
"2005/07/15", 21.5, 22.5, 21.0
"2005/07/16", 22.6, 23.0, 22.3
"2005/07/17", 23.1, 23.6, 22.8
"2005/07/18", 23.7, 24.5, 23.3
"2005/07/19", 24.3, 24.5, 24.0
"2005/07/20", 23.9, 24.5, 23.6
"2005/07/21", 23.8, 24.3, 23.4
"2005/07/22", 23.9, 24.3, 23.5
"2005/07/23", 23.2, 23.6, 22.9
"2005/07/24", 23.0, 23.4, 22.8
"2005/07/25", 23.0, 23.3, 22.8
"2005/07/26", 22.9, 23.3, 22.7
"2005/07/27", 23.3, 24.1, 22.8
"2005/07/28", 24.0, 24.5, 23.6
"2005/07/29", 24.4, 25.0, 24.0
"2005/07/30", 24.9, 25.2, 24.6
"2005/07/31", 25.1, 25.6, 24.9
"2005/08/01", 25.4, 25.7, 25.1
"2005/08/02", 25.5, 25.7, 25.3
"2005/08/03", 25.5, 26.1, 25.2
"2005/08/04", 26.0, 26.5, 25.6
"2005/08/05", 26.2, 26.6, 25.9
"2005/08/06", 26.4, 26.8, 26.0
"2005/08/07", 26.6, 27.0, 26.3
"2005/08/08", 26.6, 27.0, 26.3
"2005/08/09", 26.1, 26.5, 25.8
"2005/08/10", 25.9, 26.3, 25.7
"2005/08/11", 25.5, 25.9, 25.2
"2005/08/12", 25.6, 25.9, 25.4
"2005/08/13", 25.2, 25.6, 25.0
"2005/08/14", 25.2, 25.8, 24.9
"2005/08/15", 25.8, 26.3, 25.4
"2005/08/16", 25.9, 26.3, 25.6
"2005/08/17", 25.5, 25.8, 25.2
"2005/08/18", 25.5, 25.8, 25.2
"2005/08/19", 25.8, 26.4, 25.4
"2005/08/20", 26.2, 26.7, 25.9
"2005/08/21", 26.4, 26.7, 26.1
"2005/08/22", 26.3, 26.7, 26.1
"2005/08/23", 25.9, 26.3, 25.6
"2005/08/24", 25.1, 25.6, 24.8
"2005/08/25", 24.5, 25.0, 24.3
"2005/08/26", 24.0, 24.3, 23.7
"2005/08/27", 24.4, 24.7, 24.2
"2005/08/28", 24.4, 24.7, 24.2
"2005/08/29", 24.1, 24.6, 23.8
"2005/08/30", 24.3, 24.6, 23.9
"2005/08/31", 24.4, 24.6, 24.3
"2005/09/01", 24.3, 24.7, 23.9
"2005/09/02", 24.4, 24.8, 24.1
"2005/09/03", 24.8, 25.2, 24.5
"2005/09/04", 24.8, 25.2, 24.7
"2005/09/05", 24.3, 24.7, 24.0
"2005/09/06", 23.7, 24.0, 23.5
"2005/09/07", 23.8, 24.2, 23.6
"2005/09/08", 24.3, 24.9, 23.9
"2005/09/09", 24.4, 24.9, 24.2
"2005/09/10", 24.1, 24.4, 23.8
"2005/09/11", 24.3, 24.5, 24.1
"2005/09/12", 24.2, 24.6, 23.9
"2005/09/13", 24.4, 24.7, 24.1
"2005/09/14", 24.6, 25.0, 24.4
"2005/09/15", 24.5, 25.0, 24.1
"2005/09/16", 23.7, 24.1, 23.4
"2005/09/17", 23.2, 23.6, 22.9
"2005/09/18", 23.2, 23.5, 22.9
"2005/09/19", 23.4, 23.8, 23.1
"2005/09/20", 23.6, 23.8, 23.5
"2005/09/21", 23.3, 23.6, 23.1
"2005/09/22", 23.0, 23.3, 22.8
"2005/09/23", 22.7, 23.0, 22.5
"2005/09/24", 22.8, 23.0, 22.5
"2005/09/25", 21.9, 22.5, 21.3
"2005/09/26", 21.1, 21.4, 20.8
"2005/09/27", 20.9, 21.2, 20.8
"2005/09/28", 20.5, 20.8, 20.3
"2005/09/29", 20.2, 20.5, 20.0
"2005/09/30", 20.2, 20.5, 20.0
"2005/10/01", 20.2, 20.5, 19.9
"2005/10/02", 20.4, 21.0, 20.1
"2005/10/03", 21.0, 21.1, 20.9
"2005/10/04", 20.8, 21.1, 20.6
"2005/10/05", 20.3, 20.6, 20.0
"2005/10/06", 19.8, 20.0, 19.7
"2005/10/07", 19.7, 19.9, 19.5
"2005/10/08", 20.0, 20.4, 19.8
"2005/10/09", 20.2, 20.4, 19.8
"2005/10/10", 19.5, 19.9, 19.3
"2005/10/11", 19.1, 19.3, 19.0
"2005/10/12", 18.9, 19.1, 18.7
"2005/10/13", 18.6, 18.9, 18.2
"2005/10/14", 18.8, 19.3, 18.5
"2005/10/15", 19.4, 19.8, 19.3
"2005/10/16", 19.6, 19.8, 19.3
"2005/10/17", 18.9, 19.3, 18.4
"2005/10/18", 17.9, 18.4, 17.5
"2005/10/19", 17.2, 17.5, 17.0
"2005/10/20", 16.9, 17.2, 16.5
"2005/10/21", 17.2, 17.5, 17.0
"2005/10/22", 17.2, 17.5, 17.1
"2005/10/23", 16.8, 17.1, 16.6
"2005/10/24", 16.4, 16.8, 16.0
"2005/10/25", 16.4, 16.7, 16.0
"2005/10/26", 16.3, 16.7, 16.1
"2005/10/27", 16.0, 16.3, 15.8
"2005/10/28", 15.5, 15.9, 15.1
"2005/10/29", 15.7, 15.9, 15.5
"2005/10/30", 15.9, 16.0, 15.7
"2005/10/31", 15.5, 16.0, 15.1
"2005/11/01", 14.6, 15.1, 14.2
"2005/11/02", 14.2, 14.6, 13.7
"2005/11/03", 14.3, 14.7, 14.0
"2005/11/04", 14.5, 14.8, 14.2
"2005/11/05", 14.5, 14.8, 14.1
"2005/11/06", 14.5, 14.8, 14.3
"2005/11/07", 14.7, 15.3, 14.4
"2005/11/08", 14.8, 15.3, 14.5
"2005/11/09", 14.2, 14.8, 13.8
"2005/11/10", 13.8, 14.1, 13.4
"2005/11/11", 13.3, 13.8, 13.0
"2005/11/12", 13.1, 13.4, 12.9
"2005/11/13", 12.8, 13.3, 12.5
"2005/11/14", 12.5, 12.9, 12.2
"2005/11/15", 12.2, 12.5, 12.1
"2005/11/16", 11.8, 12.1, 11.5
"2005/11/17", 11.4, 11.9, 11.1
"2005/11/18", 11.0, 11.4, 10.7
"2005/11/19", 10.8, 11.1, 10.4
"2005/11/20", 10.4, 10.8, 10.0
"2005/11/21", 10.2, 10.5,  9.9
"2005/11/22", 10.1, 10.3,  9.7
"2005/11/23", 10.1, 10.3,  9.8
"2005/11/24", 10.1, 10.4,  9.8
"2005/11/25", 10.2, 10.4, 10.0
"2005/11/26", 10.0, 10.4,  9.7
"2005/11/27", 10.1, 10.4,  9.9
"2005/11/28", 10.0, 10.4,  9.7
"2005/11/29", 10.2, 10.4, 10.0
"2005/11/30", 10.0, 10.4,  9.7
"2005/12/01",  9.7, 10.0,  9.3
"2005/12/02",  9.2,  9.7,  8.9
"2005/12/03",  9.0,  9.1,  8.8
"2005/12/04",  8.5,  9.1,  8.2
"2005/12/05",  8.1,  8.3,  7.9
"2005/12/06",  7.9,  8.2,  7.7
"2005/12/07",  7.6,  7.9,  7.4
"2005/12/08",  7.5,  7.7,  7.2
"2005/12/09",  7.2,  7.6,  6.9
"2005/12/10",  7.0,  7.4,  6.7
"2005/12/11",  6.8,  7.1,  6.6
"2005/12/12",  6.4,  6.6,  6.2
"2005/12/13",  6.1,  6.5,  5.8
"2005/12/14",  5.5,  6.0,  5.2
"2005/12/15",  5.1,  5.5,  4.8
"2005/12/16",  4.9,  5.2,  4.6
"2005/12/17",  4.7,  5.1,  4.4
"2005/12/18",  4.6,  4.9,  4.4
"2005/12/19",  4.1,  4.6,  3.8
"2005/12/20",  3.8,  4.1,  3.5
"2005/12/21",  3.9,  4.2,  3.6
"2005/12/22",  4.0,  4.2,  3.9
"2005/12/23",  3.9,  4.1,  3.6
"2005/12/24",  3.7,  4.0,  3.4
"2005/12/25",  3.5,  3.8,  3.2
"2005/12/26",  3.2,  3.5,  2.9
"2005/12/27",  3.2,  3.4,  2.9
"2005/12/28",  3.1,  3.4,  2.9
"2005/12/29",  3.0,  3.3,  2.7
"2005/12/30",  2.9,  3.2,  2.6
"2005/12/31",  3.0,  3.2,  2.7
